Hourly Data Report for October 09, 2014

All times are specified in Local Standard Time (LST). Add 1 hour to adjust for Daylight Saving Time where and when it is observed.

BAKER LAKE A
NUNAVUT

64°17'56.000" N
96°04'40.000" W
18.60 m
2300503
71926
YBK

Download Data

Hourly Data (October 2014)
Hourly Data Report for October 9, 2014
Temp Definition
°C
Dew Point Temp Definition
°C
Rel Hum Definition
%
Wind Dir Definition
10's deg

Wind Spd Definition
km/h
Visibility Definition
km
Stn Press Definition
kPa
Hmdx Definition


Wind Chill Definition


Weather Definition


TIME
00:00 Legend Double Dagger -0.6 -3.1 83 12 6 24.1 102.33   -3 Cloudy
01:00 Legend Double Dagger -0.6 -3.1 83 2 6 24.1 102.34   -3 LegendNANA
02:00 Legend Double Dagger -0.9 -3.0 86 34 8 24.1 102.34   -4 LegendNANA
03:00 Legend Double Dagger -2.0 -4.5 83 7 16 24.1 102.36   -7 Cloudy
04:00 Legend Double Dagger -2.1 -4.8 82 6 14 24.1 102.37   -7 LegendNANA
05:00 Legend Double Dagger -2.0 -5.5 77 36 16 24.1 102.39   -7 LegendNANA
06:00 Legend Double Dagger -2.3 -6.1 75 1 14 24.1 102.40   -7 Cloudy
07:00 Legend Double Dagger -2.7 -5.9 79 4 9 32.2 102.40   -6 LegendNANA
08:00 Legend Double Dagger -2.8 -6.0 79 2 6 32.2 102.40   -5 LegendNANA
09:00 Legend Double Dagger -2.7 -6.0 78 4 8 32.2 102.38   -6 Cloudy
10:00 Legend Double Dagger -2.8 -6.5 76 3 9 32.2 102.38   -6 LegendNANA
11:00 Legend Double Dagger -3.3 -6.4 79 36 14 32.2 102.40   -8 LegendNANA
12:00 Legend Double Dagger -2.8 -5.5 82 2 12 32.2 102.38   -7 Cloudy
13:00 Legend Double Dagger -2.2 -5.5 78 34 16 24.1 102.37   -7 LegendNANA
14:00 Legend Double Dagger -2.0 -5.3 78 34 16 24.1 102.33   -7 LegendNANA
15:00 Legend Double Dagger -1.9 -5.2 78 35 13 24.1 102.30   -6 Cloudy
16:00 Legend Double Dagger -1.6 -4.9 78 35 15 32.2 102.26   -6 LegendNANA
17:00 Legend Double Dagger -1.2 -4.4 79 35 12 32.2 102.23   -5 LegendNANA
18:00 Legend Double Dagger -3.3 -4.9 89 31 10 32.2 102.20   -7 Mainly Clear
19:00 Legend Double Dagger -3.9 -5.2 91 31 12 24.1 102.13   -9 LegendNANA
20:00 Legend Double Dagger -3.3 -4.6 91 33 11 24.1 102.10   -8 LegendNANA
21:00 Legend Double Dagger -4.2 -5.6 90 35 22 24.1 102.05   -11 Mostly Cloudy
22:00 Legend Double Dagger -4.2 -5.6 90 34 18 24.1 102.02   -10 LegendNANA
23:00 Legend Double Dagger -4.3 -5.7 90 34 18 24.1 102.00   -10 LegendNANA

Notes on Data Quality.

Legend

  • E = Estimated
  • M = Missing
  • NA = Not Available
  • ‡ = Partner data that is not subject to review by the National Climate Archives
Date modified: